Terug naar catalogus

LILIUM-2

ActiefAmateurradioSSO
NORAD 66679·PAYLOAD·🇹🇼 Taiwan

Gelanceerd Nov 28, 2025 vanaf Vandenberg Space Force Base

Loading…

Volgende Passages (komende 24 uur)

TLE

VersSource: Space-Track

Epoch: Sep 14, 2026, 03:41 UTC

1 66679U 25276P   26257.15382984  .00002332  00000-0  11675-3 0  9991
2 66679  97.4077 328.3989 0007392  64.3858 295.8139 15.18350302 43896

Volg LILIUM-2 in realtime met AllMySat

Download on the App Store